�������l�o���
Date,Time,MP-1(��Sv/h),MP-2(��Sv/h),MP-3(��Sv/h),MP-4(��Sv/h),MP-5(��Sv/h),MP-6(��Sv/h),MP-7(��Sv/h),MP-8(��Sv/h),����,����(m/s),���J
2019/01/26,00:00,0.796,1.182,0.829,1.521,1.090,0.451,0.801,0.756,�k��,2.3,��
2019/01/26,00:10,0.796,1.180,0.827,1.521,1.090,0.451,0.802,0.757,�k��,3.0,��
2019/01/26,00:20,0.794,1.184,0.829,1.523,1.091,0.451,0.801,0.758,�k��,2.8,��
2019/01/26,00:30,0.796,1.184,0.827,1.518,1.091,0.452,0.800,0.759,�k��,2.6,��
2019/01/26,00:40,0.795,1.180,0.828,1.522,1.090,0.453,0.802,0.759,�k�k��,3.9,��
2019/01/26,00:50,0.795,1.178,0.828,1.519,1.089,0.452,0.801,0.757,�k�k��,4.4,��
2019/01/26,01:00,0.795,1.171,0.828,1.518,1.090,0.452,0.800,0.757,�k�k��,6.1,��
2019/01/26,01:10,0.793,1.177,0.827,1.519,1.091,0.451,0.801,0.759,�k�k��,7.4,��
2019/01/26,01:20,0.795,1.178,0.830,1.520,1.091,0.450,0.802,0.758,�k�k��,8.6,��
2019/01/26,01:30,0.795,1.179,0.831,1.518,1.092,0.451,0.803,0.758,�k�k��,7.9,�L
2019/01/26,01:40,0.795,1.176,0.827,1.520,1.091,0.451,0.802,0.761,�k��,8.1,�L
2019/01/26,01:50,0.796,1.177,0.827,1.520,1.091,0.451,0.801,0.758,�k��,7.3,�L
2019/01/26,02:00,0.795,1.175,0.827,1.518,1.087,0.454,0.802,0.758,�k��,7.2,�L
2019/01/26,02:10,0.792,1.171,0.825,1.514,1.085,0.451,0.800,0.756,�k��,7.6,�L
2019/01/26,02:20,0.789,1.163,0.823,1.507,1.080,0.450,0.799,0.755,�k��,7.8,�L
2019/01/26,02:30,0.785,1.155,0.819,1.501,1.072,0.450,0.796,0.755,�k��,6.4,�L
2019/01/26,02:40,0.782,1.148,0.815,1.497,1.066,0.449,0.793,0.753,�k��,6.9,�L
2019/01/26,02:50,0.779,1.137,0.812,1.489,1.058,0.447,0.794,0.752,�k��,6.2,�L
2019/01/26,03:00,0.778,1.132,0.812,1.484,1.056,0.446,0.791,0.753,�k��,6.6,�L
2019/01/26,03:10,0.774,1.129,0.809,1.480,1.053,0.448,0.791,0.750,�k��,7.2,�L
2019/01/26,03:20,0.771,1.123,0.808,1.479,1.048,0.446,0.789,0.750,�k��,7.6,�L
2019/01/26,03:30,0.767,1.121,0.804,1.474,1.045,0.445,0.790,0.750,�k��,7.5,�L
2019/01/26,03:40,0.768,1.119,0.803,1.472,1.044,0.445,0.786,0.750,�k�k��,7.9,�L
2019/01/26,03:50,0.768,1.119,0.801,1.469,1.039,0.447,0.785,0.752,�k��,6.8,�L
2019/01/26,04:00,0.764,1.111,0.800,1.466,1.035,0.445,0.783,0.751,�k�k��,8.3,�L
2019/01/26,04:10,0.762,1.102,0.796,1.463,1.030,0.444,0.783,0.750,�k��,8.3,�L
2019/01/26,04:20,0.758,1.099,0.794,1.456,1.030,0.445,0.781,0.749,�k�k��,8.1,�L
2019/01/26,04:30,0.756,1.092,0.793,1.451,1.022,0.444,0.781,0.749,�k�k��,8.6,�L
2019/01/26,04:40,0.754,1.091,0.792,1.449,1.020,0.444,0.783,0.749,�k�k��,8.6,�L
2019/01/26,04:50,0.754,1.088,0.789,1.445,1.019,0.442,0.780,0.747,�k�k��,8.5,�L
2019/01/26,05:00,0.750,1.083,0.788,1.440,1.011,0.444,0.778,0.745,�k�k��,9.4,�L
2019/01/26,05:10,0.747,1.076,0.787,1.434,1.007,0.444,0.776,0.744,�k�k��,9.0,�L
2019/01/26,05:20,0.745,1.069,0.786,1.431,1.004,0.441,0.776,0.745,�k��,8.8,�L
2019/01/26,05:30,0.744,1.067,0.784,1.425,1.003,0.441,0.775,0.745,�k��,9.8,�L
2019/01/26,05:40,0.742,1.067,0.782,1.423,1.002,0.440,0.774,0.745,�k��,9.8,�L
2019/01/26,05:50,0.741,1.066,0.780,1.421,1.000,0.439,0.774,0.744,�k�k��,9.1,�L
2019/01/26,06:00,0.739,1.062,0.780,1.416,0.998,0.440,0.772,0.744,�k�k��,9.7,�L
2019/01/26,06:10,0.736,1.058,0.778,1.412,0.991,0.440,0.771,0.742,�k�k��,8.5,�L
2019/01/26,06:20,0.737,1.053,0.775,1.407,0.988,0.440,0.770,0.742,�k��,8.2,�L
2019/01/26,06:30,0.732,1.053,0.773,1.407,0.987,0.439,0.769,0.741,�k��,8.1,�L
2019/01/26,06:40,0.731,1.051,0.771,1.407,0.987,0.439,0.770,0.743,�k�k��,8.9,�L
2019/01/26,06:50,0.730,1.050,0.772,1.406,0.986,0.439,0.769,0.741,�k��,9.1,�L
2019/01/26,07:00,0.729,1.041,0.771,1.396,0.978,0.440,0.769,0.738,�k�k��,8.1,�L
2019/01/26,07:10,0.724,1.033,0.768,1.394,0.973,0.438,0.768,0.740,�k�k��,8.3,�L
2019/01/26,07:20,0.722,1.032,0.766,1.390,0.972,0.439,0.766,0.736,�k�k��,8.4,�L
2019/01/26,07:30,0.720,1.028,0.767,1.387,0.970,0.437,0.766,0.738,�k�k��,9.6,�L
2019/01/26,07:40,0.721,1.025,0.761,1.383,0.968,0.436,0.766,0.737,�k�k��,9.3,�L
2019/01/26,07:50,0.720,1.023,0.766,1.382,0.965,0.438,0.764,0.735,�k�k��,9.4,�L
2019/01/26,08:00,0.719,1.017,0.765,1.377,0.963,0.437,0.764,0.736,�k�k��,7.4,�L
2019/01/26,08:10,0.718,1.020,0.764,1.378,0.962,0.439,0.762,0.737,�k�k��,6.9,�L
2019/01/26,08:20,0.718,1.017,0.763,1.375,0.959,0.437,0.764,0.737,�k��,7.9,�L
2019/01/26,08:30,0.717,1.016,0.762,1.374,0.958,0.436,0.763,0.735,�k��,7.8,�L
2019/01/26,08:40,0.712,1.015,0.762,1.372,0.954,0.436,0.762,0.737,�k�k��,8.8,�L
2019/01/26,08:50,0.713,1.013,0.761,1.369,0.954,0.435,0.762,0.737,�k��,9.8,�L
2019/01/26,09:00,0.711,1.012,0.758,1.366,0.951,0.434,0.760,0.735,�k�k��,8.5,�L
2019/01/26,09:10,0.710,1.010,0.755,1.364,0.950,0.431,0.762,0.734,�k�k��,7.6,��
2019/01/26,09:20,0.710,1.006,0.755,1.358,0.949,0.433,0.760,0.734,�k�k��,6.8,�L
2019/01/26,09:30,0.707,1.006,0.754,1.361,0.947,0.430,0.761,0.734,�k�k��,7.1,��
2019/01/26,09:40,0.706,1.003,0.752,1.359,0.946,0.430,0.762,0.734,�k�k��,7.5,��
2019/01/26,09:50,0.704,1.003,0.752,1.357,0.944,0.429,0.762,0.734,�k�k��,8.5,��
2019/01/26,10:00,0.706,1.003,0.750,1.357,0.944,0.428,0.760,0.732,�k�k��,7.9,��
2019/01/26,10:10,0.703,1.004,0.748,1.357,0.943,0.428,0.760,0.734,�k�k��,7.3,��
2019/01/26,10:20,0.704,1.002,0.750,1.356,0.939,0.427,0.760,0.734,�k�k��,7.2,��
2019/01/26,10:30,0.705,0.997,0.750,1.358,0.941,0.426,0.762,0.733,�k�k��,6.9,��
2019/01/26,10:40,0.704,1.001,0.749,1.357,0.941,0.427,0.761,0.734,�k�k��,8.3,��
2019/01/26,10:50,0.703,0.999,0.749,1.356,0.941,0.426,0.759,0.735,�k�k��,9.3,��
2019/01/26,11:00,0.703,1.001,0.748,1.358,0.939,0.426,0.762,0.734,�k�k��,8.3,��
2019/01/26,11:10,0.703,1.000,0.748,1.356,0.938,0.425,0.761,0.735,�k�k��,7.7,��
2019/01/26,11:20,0.703,0.999,0.750,1.358,0.940,0.424,0.762,0.735,�k�k��,7.3,��
2019/01/26,11:30,0.704,1.000,0.750,1.357,0.939,0.424,0.765,0.735,�k�k��,6.7,��
2019/01/26,11:40,0.702,0.998,0.749,1.361,0.937,0.425,0.762,0.735,�k�k��,7.3,��
2019/01/26,11:50,0.703,1.000,0.751,1.356,0.941,0.425,0.761,0.735,�k�k��,7.2,��
2019/01/26,12:00,0.704,1.000,0.750,1.357,0.940,0.425,0.764,0.735,�k�k��,6.8,��
2019/01/26,12:10,0.703,0.999,0.751,1.356,0.940,0.423,0.766,0.735,�k�k��,7.2,��
2019/01/26,12:20,0.704,1.002,0.750,1.357,0.940,0.423,0.764,0.735,�k,5.8,��
2019/01/26,12:30,0.705,1.002,0.750,1.358,0.940,0.423,0.765,0.737,�k�k��,6.0,��
2019/01/26,12:40,0.705,1.001,0.752,1.356,0.939,0.425,0.765,0.735,�k�k��,5.7,��
2019/01/26,12:50,0.705,1.004,0.751,1.358,0.940,0.424,0.767,0.736,�k,6.5,��
2019/01/26,13:00,0.706,1.002,0.753,1.357,0.943,0.423,0.768,0.736,�k�k��,6.9,��
2019/01/26,13:10,0.705,1.002,0.751,1.356,0.941,0.424,0.769,0.736,�k,6.4,��
2019/01/26,13:20,0.706,1.005,0.752,1.355,0.942,0.424,0.768,0.736,�k�k��,6.5,��
2019/01/26,13:30,0.706,1.002,0.750,1.356,0.942,0.425,0.769,0.737,�k�k��,6.3,��
2019/01/26,13:40,0.706,1.003,0.752,1.354,0.946,0.424,0.767,0.736,�k�k��,6.6,��
2019/01/26,13:50,0.705,1.003,0.752,1.354,0.945,0.425,0.768,0.739,�k��,5.5,��
2019/01/26,14:00,0.707,1.004,0.750,1.352,0.948,0.426,0.768,0.735,�k��,6.2,��
2019/01/26,14:10,0.708,1.005,0.752,1.351,0.948,0.424,0.769,0.737,�k��,5.3,��
2019/01/26,14:20,0.707,1.005,0.752,1.352,0.950,0.424,0.769,0.736,�k��,4.9,��
2019/01/26,14:30,0.707,1.003,0.754,1.350,0.951,0.425,0.770,0.737,�k�k��,5.0,��
2019/01/26,14:40,0.709,1.006,0.752,1.351,0.951,0.425,0.768,0.737,�k�k��,6.0,��
2019/01/26,14:50,0.705,1.007,0.753,1.348,0.950,0.426,0.770,0.736,�k�k��,8.0,��
2019/01/26,15:00,0.707,1.009,0.753,1.352,0.952,0.424,0.772,0.737,�k�k��,7.5,��
2019/01/26,15:10,0.707,1.006,0.753,1.353,0.952,0.426,0.771,0.738,�k�k��,8.3,��
2019/01/26,15:20,0.709,1.007,0.752,1.349,0.953,0.427,0.769,0.739,�k�k��,8.3,��
2019/01/26,15:30,0.710,1.008,0.752,1.350,0.954,0.426,0.771,0.737,�k�k��,9.7,��
2019/01/26,15:40,0.707,1.008,0.751,1.349,0.955,0.425,0.771,0.737,�k�k��,8.4,��
2019/01/26,15:50,0.710,1.008,0.752,1.350,0.956,0.425,0.771,0.738,�k�k��,8.4,��
2019/01/26,16:00,0.712,1.009,0.752,1.348,0.957,0.425,0.769,0.739,�k�k��,7.8,��
2019/01/26,16:10,0.710,1.009,0.752,1.349,0.957,0.424,0.772,0.738,�k�k��,6.9,��
2019/01/26,16:20,0.710,1.009,0.751,1.354,0.956,0.425,0.770,0.738,�k�k��,8.5,��
2019/01/26,16:30,0.710,1.011,0.752,1.352,0.956,0.424,0.772,0.738,�k�k��,9.6,��
2019/01/26,16:40,0.709,1.012,0.750,1.350,0.957,0.424,0.771,0.737,�k�k��,10.0,��
2019/01/26,16:50,0.711,1.010,0.752,1.353,0.958,0.423,0.772,0.738,�k�k��,9.9,��
2019/01/26,17:00,0.711,1.009,0.753,1.351,0.958,0.424,0.772,0.741,�k�k��,10.6,��
2019/01/26,17:10,0.711,1.011,0.754,1.350,0.957,0.425,0.773,0.740,�k�k��,9.7,��
2019/01/26,17:20,0.709,1.007,0.753,1.351,0.959,0.424,0.773,0.738,�k�k��,10.2,��
2019/01/26,17:30,0.711,1.006,0.754,1.352,0.959,0.424,0.773,0.740,�k�k��,8.3,��
2019/01/26,17:40,0.711,1.008,0.755,1.353,0.958,0.424,0.772,0.739,�k�k��,9.1,��
2019/01/26,17:50,0.711,1.008,0.754,1.350,0.959,0.425,0.771,0.739,�k�k��,8.6,��
2019/01/26,18:00,0.710,1.009,0.753,1.353,0.959,0.424,0.773,0.739,�k��,8.3,��
2019/01/26,18:10,0.713,1.010,0.754,1.354,0.958,0.425,0.773,0.741,�k�k��,8.5,��
2019/01/26,18:20,0.711,1.011,0.754,1.353,0.961,0.425,0.772,0.737,�k�k��,8.8,��
2019/01/26,18:30,0.712,1.012,0.755,1.356,0.958,0.427,0.773,0.739,�k��,7.7,��
2019/01/26,18:40,0.712,1.010,0.754,1.353,0.960,0.427,0.772,0.738,�k��,5.8,��
2019/01/26,18:50,0.712,1.011,0.757,1.356,0.960,0.427,0.773,0.738,�k�k��,7.9,��
2019/01/26,19:00,0.712,1.013,0.757,1.356,0.960,0.429,0.773,0.739,�k�k��,7.0,��
2019/01/26,19:10,0.713,1.011,0.757,1.354,0.960,0.426,0.773,0.738,�k�k��,6.0,��
2019/01/26,19:20,0.711,1.012,0.755,1.357,0.960,0.425,0.772,0.740,�k�k��,6.2,��
2019/01/26,19:30,0.712,1.013,0.758,1.354,0.959,0.428,0.775,0.739,�k�k��,7.0,��
2019/01/26,19:40,0.713,1.011,0.756,1.358,0.961,0.427,0.774,0.740,�k��,7.0,��
2019/01/26,19:50,0.712,1.011,0.758,1.360,0.961,0.428,0.772,0.739,�k��,7.1,��
2019/01/26,20:00,0.711,1.013,0.758,1.354,0.963,0.427,0.773,0.739,�k��,6.6,��
2019/01/26,20:10,0.712,1.013,0.758,1.358,0.959,0.426,0.772,0.737,�k��,7.6,��
2019/01/26,20:20,0.713,1.014,0.757,1.357,0.961,0.427,0.774,0.739,�k��,8.5,��
2019/01/26,20:30,0.714,1.015,0.758,1.356,0.961,0.427,0.773,0.738,�k��,7.1,��
2019/01/26,20:40,0.712,1.014,0.757,1.355,0.962,0.428,0.771,0.739,�k��,7.5,��
2019/01/26,20:50,0.710,1.013,0.758,1.357,0.963,0.426,0.773,0.740,�k��,8.3,��
2019/01/26,21:00,0.712,1.012,0.758,1.357,0.960,0.426,0.772,0.740,�k��,8.5,��
2019/01/26,21:10,0.712,1.014,0.758,1.358,0.961,0.426,0.773,0.737,�k��,8.6,��
2019/01/26,21:20,0.712,1.013,0.757,1.357,0.962,0.426,0.772,0.738,�k��,7.7,��
2019/01/26,21:30,0.712,1.013,0.757,1.355,0.961,0.427,0.772,0.739,�k��,8.3,��
2019/01/26,21:40,0.712,1.013,0.757,1.358,0.962,0.427,0.772,0.740,�k��,8.1,��
2019/01/26,21:50,0.711,1.016,0.756,1.356,0.959,0.426,0.773,0.738,�k��,7.9,��
2019/01/26,22:00,0.711,1.013,0.756,1.356,0.961,0.426,0.772,0.739,�k��,7.7,��
2019/01/26,22:10,0.711,1.014,0.758,1.357,0.961,0.425,0.772,0.738,�k��,9.2,��
2019/01/26,22:20,0.713,1.013,0.756,1.357,0.961,0.426,0.773,0.740,�k��,7.8,��
2019/01/26,22:30,0.712,1.014,0.756,1.358,0.960,0.426,0.773,0.741,�k��,7.8,��
2019/01/26,22:40,0.711,1.011,0.756,1.355,0.960,0.428,0.772,0.740,�k��,8.1,��
2019/01/26,22:50,0.711,1.013,0.758,1.359,0.963,0.427,0.772,0.739,�k��,8.3,��
2019/01/26,23:00,0.711,1.011,0.757,1.357,0.958,0.425,0.775,0.740,�k��,8.7,��
2019/01/26,23:10,0.712,1.013,0.754,1.359,0.963,0.427,0.774,0.740,�k��,7.8,��
2019/01/26,23:20,0.711,1.013,0.756,1.360,0.963,0.428,0.774,0.740,�k��,8.8,��
2019/01/26,23:30,0.710,1.009,0.758,1.357,0.960,0.426,0.773,0.740,�k��,8.5,��
2019/01/26,23:40,0.710,1.012,0.758,1.357,0.962,0.428,0.772,0.740,�k��,8.5,��
2019/01/26,23:50,0.711,1.012,0.756,1.359,0.961,0.426,0.772,0.740,���k��,8.8,��
